This is the latest recevied weather packets stored in our database for station/object K9MWD. If no packets are shown the sender has not sent any weather packets the latest 1 day(s).
| Time | Temp. | Humidity | Pressure | Rain* | Wind** | Luminosity | Snow |
|---|---|---|---|---|---|---|---|
| 1778093471 | 14.44° C | 80% | 1014.4 hPa | 0 mm | - | 92 W/m² | - |
| 1778092866 | 14.44° C | 80% | 1014.2 hPa | 0 mm | - | 102 W/m² | - |
| 1778091956 | 15° C | 79% | 1013.6 hPa | 0 mm | - | 121 W/m² | - |
| 1778091351 | 15° C | 78% | 1013.6 hPa | 0 mm | - | 184 W/m² | - |
| 1778090441 | 15° C | 79% | 1014.3 hPa | 0 mm | - | 102 W/m² | - |
| 1778089533 | 15° C | 79% | 1013.8 hPa | 0 mm | - | 89 W/m² | - |
| 1778088926 | 15° C | 79% | 1012.5 hPa | 0 mm | - | 178 W/m² | - |
| 1778088320 | 14.44° C | 80% | 1012.1 hPa | 0 mm | - | 347 W/m² | - |
| 1778088016 | 14.44° C | 80% | 1012.5 hPa | 0 mm | - | 340 W/m² | - |
| 1778087714 | 14.44° C | 80% | 1012.6 hPa | 0 mm | - | 357 W/m² | - |
| 1778086200 | 14.44° C | 81% | 1014.5 hPa | 0 mm | - | 316 W/m² | - |
| 1778084078 | 13.33° C | 83% | 1013.8 hPa | 0 mm | - | 234 W/m² | - |
| 1778083472 | 13.33° C | 83% | 1013.7 hPa | 0 mm | - | 104 W/m² | - |
| 1778079023 | 13.33° C | 80% | 1014.7 hPa | 0 mm | - | 55 W/m² | - |
| 1778078417 | 13.33° C | 79% | 1014.3 hPa | 0 mm | - | 56 W/m² | - |
| 1778077813 | 13.89° C | 79% | 1014.4 hPa | 0 mm | - | 51 W/m² | - |
| 1778077510 | 13.33° C | 79% | 1014.1 hPa | 0 mm | - | 63 W/m² | - |
| 1778076604 | 13.89° C | 78% | 1013.6 hPa | 0 mm | - | 76 W/m² | - |
| 1778075695 | 13.89° C | 77% | 1013.4 hPa | 0 mm | - | 86 W/m² | - |
| 1778074481 | 13.89° C | 77% | 1013.2 hPa | 0 mm | - | 86 W/m² | - |
| 1778073572 | 13.89° C | 78% | 1012.8 hPa | 0 mm | - | 80 W/m² | - |
| 1778072360 | 13.89° C | 78% | 1012.9 hPa | 0 mm | - | 48 W/m² | - |
| 1778071756 | 13.89° C | 78% | 1012.6 hPa | 0 mm | - | 54 W/m² | - |
| 1778071151 | 13.89° C | 78% | 1012.4 hPa | 0 mm | - | 44 W/m² | - |
| 1778070849 | 13.89° C | 78% | 1012.3 hPa | 0 mm | - | 37 W/m² | - |
* Rain latest hour (hover to see other rain measurements)
** Current wind speed in m/s (hover to see current wind gust speed)